Torna al catalogo

QIANFAN-235

AttivoComunicazioniPO
NORAD 69864·PAYLOAD·🇨🇳 China

Lanciato Jul 5, 2026 da Wenchang Space Launch Site

Loading…

Prossimi Passaggi (prossime 24 ore)

TLE

AggiornatoSource: Space-Track

Epoca: Sep 14, 2026, 20:51 UTC

1 69864U 26155S   26257.86878002 -.01830271  00000-0 -16571+1 0  9997
2 69864  89.0079  54.0402 0029852  23.0086 337.2415 13.87844002 10102

Traccia QIANFAN-235 in tempo reale con AllMySat

Download on the App Store